timestamp,wind_dir_avg,wind_spd_avg,wind_spd_max_dir,wind_spd_gust,battery_voltage,lat,long
2022-09-07 00:04:00+00:00,27.0,8.69,33.0,9.57,12.49,47.59359,-54.27349
2022-09-07 00:14:01+00:00,27.0,8.29,29.0,9.36,12.49,47.59359,-54.27349
2022-09-07 00:24:01+00:00,37.0,7.69,44.0,8.65,12.49,47.59359,-54.27349
2022-09-07 00:34:01+00:00,25.0,8.82,27.0,9.82,12.49,47.59359,-54.27349
2022-09-07 00:44:01+00:00,28.0,7.52,34.0,9.01,12.49,47.59359,-54.27349
2022-09-07 00:54:01+00:00,32.0,8.95,39.0,10.31,12.49,47.59359,-54.27349
2022-09-07 01:04:01+00:00,24.0,8.28,23.0,9.5,12.49,47.59359,-54.27349
2022-09-07 01:14:00+00:00,28.0,8.74,19.0,10.18,12.41,47.59359,-54.27349
2022-09-07 01:24:00+00:00,36.0,9.47,39.0,11.17,12.41,47.59359,-54.27349
2022-09-07 01:34:00+00:00,12.0,9.23,13.0,10.26,12.41,47.59359,-54.27349
2022-09-07 01:44:00+00:00,15.0,9.69,16.0,10.73,12.41,47.59359,-54.27349
2022-09-07 01:54:00+00:00,17.0,8.51,15.0,9.64,12.41,47.59359,-54.27349
2022-09-07 02:04:00+00:00,20.0,8.92,16.0,9.65,12.41,47.59359,-54.27349
2022-09-07 02:14:00+00:00,17.0,9.08,9.0,10.43,12.41,47.59359,-54.27349
2022-09-07 02:24:00+00:00,15.0,7.8,18.0,9.21,12.41,47.59359,-54.27349
2022-09-07 02:34:00+00:00,25.0,8.01,27.0,9.43,12.41,47.59359,-54.27349
2022-09-07 02:44:00+00:00,25.0,8.74,26.0,9.77,12.41,47.59359,-54.27349
2022-09-07 02:54:00+00:00,39.0,9.15,44.0,11.52,12.41,47.59359,-54.27349
2022-09-07 03:04:00+00:00,32.0,7.12,34.0,8.03,12.41,47.59359,-54.27349
2022-09-07 03:14:00+00:00,27.0,7.5,29.0,8.31,12.41,47.59359,-54.27349
2022-09-07 03:24:00+00:00,14.0,6.75,12.0,7.62,12.41,47.59359,-54.27349
2022-09-07 03:34:00+00:00,13.0,6.39,15.0,7.1,12.41,47.59359,-54.27349
2022-09-07 03:44:00+00:00,24.0,5.78,31.0,7.55,12.41,47.59359,-54.27349
2022-09-07 03:54:00+00:00,18.0,7.13,18.0,8.09,12.41,47.59359,-54.27349
2022-09-07 04:04:00+00:00,10.0,6.27,13.0,7.12,12.41,47.59359,-54.27349
2022-09-07 04:14:01+00:00,17.0,7.38,15.0,8.3,12.41,47.59359,-54.27349
2022-09-07 04:24:01+00:00,20.0,7.28,31.0,8.38,12.41,47.59359,-54.27349
2022-09-07 04:34:01+00:00,19.0,5.73,18.0,7.06,12.41,47.59359,-54.27349
2022-09-07 04:44:01+00:00,18.0,5.18,24.0,6.07,12.41,47.59359,-54.27349
2022-09-07 04:54:01+00:00,359.0,6.82,1.0,7.87,12.41,47.59359,-54.27349
2022-09-07 05:04:01+00:00,12.0,5.6,10.0,6.85,12.41,47.59359,-54.27349
2022-09-07 05:14:00+00:00,359.0,6.24,356.0,7.35,12.41,47.59359,-54.27349
2022-09-07 05:24:00+00:00,14.0,6.18,12.0,7.87,12.41,47.59359,-54.27349
2022-09-07 05:34:00+00:00,22.0,8.14,27.0,9.26,12.41,47.59359,-54.27349
2022-09-07 05:44:00+00:00,24.0,8.28,27.0,9.27,12.41,47.59359,-54.27349
2022-09-07 05:54:00+00:00,19.0,6.76,16.0,7.75,12.41,47.59359,-54.27349
2022-09-07 06:04:00+00:00,26.0,7.03,20.0,8.03,12.41,47.59359,-54.27349
2022-09-07 06:14:00+00:00,19.0,6.88,21.0,8.31,12.33,47.59359,-54.27349
2022-09-07 06:24:00+00:00,5.0,7.13,5.0,8.66,12.33,47.59359,-54.27349
2022-09-07 06:34:00+00:00,4.0,7.41,5.0,8.59,12.33,47.59359,-54.27349
2022-09-07 06:44:00+00:00,1.0,7.09,8.0,7.95,12.33,47.59359,-54.27349
2022-09-07 06:54:00+00:00,16.0,7.09,22.0,8.26,12.33,47.59359,-54.27349
2022-09-07 07:04:00+00:00,22.0,6.77,34.0,8.12,12.33,47.59359,-54.27349
2022-09-07 07:14:00+00:00,21.0,7.06,27.0,8.39,12.33,47.59359,-54.27349
2022-09-07 07:24:00+00:00,14.0,6.7,18.0,8.38,12.33,47.59359,-54.27349
2022-09-07 07:34:00+00:00,26.0,7.29,27.0,8.49,12.33,47.59359,-54.27349
2022-09-07 07:44:00+00:00,28.0,8.57,33.0,10.26,12.33,47.59359,-54.27349
2022-09-07 07:54:00+00:00,17.0,7.47,16.0,8.23,12.33,47.59359,-54.27349
2022-09-07 08:04:00+00:00,12.0,6.59,15.0,7.77,12.33,47.59359,-54.27349
2022-09-07 08:14:00+00:00,19.0,8.3,21.0,9.68,12.33,47.59359,-54.27349
2022-09-07 08:24:00+00:00,22.0,8.01,29.0,9.06,12.33,47.59359,-54.27349
2022-09-07 08:34:00+00:00,18.0,8.27,16.0,10.12,12.33,47.59359,-54.27349
2022-09-07 08:44:00+00:00,15.0,7.61,12.0,8.91,12.33,47.59359,-54.27349
2022-09-07 08:54:00+00:00,12.0,8.35,7.0,9.79,12.33,47.59359,-54.27349
2022-09-07 09:04:00+00:00,9.0,8.7,3.0,10.4,12.33,47.59359,-54.27349
2022-09-07 09:14:00+00:00,16.0,9.4,17.0,10.59,12.25,47.59359,-54.27349
2022-09-07 09:24:00+00:00,13.0,9.07,14.0,10.06,12.25,47.59359,-54.27349
2022-09-07 09:34:00+00:00,9.0,8.89,9.0,10.32,12.25,47.59359,-54.27349
2022-09-07 09:44:00+00:00,16.0,9.02,15.0,10.15,12.25,47.59359,-54.27349
2022-09-07 09:54:00+00:00,11.0,9.0,14.0,10.59,12.25,47.59359,-54.27349
2022-09-07 10:04:00+00:00,15.0,8.36,7.0,9.76,12.25,47.59359,-54.27349
2022-09-07 10:14:00+00:00,25.0,8.33,34.0,9.39,12.25,47.59359,-54.27349
2022-09-07 10:24:00+00:00,27.0,9.51,39.0,10.73,12.25,47.59359,-54.27349
2022-09-07 10:34:00+00:00,23.0,8.91,13.0,10.32,12.25,47.59359,-54.27349
2022-09-07 10:44:00+00:00,27.0,9.3,42.0,10.9,12.25,47.59359,-54.27349
2022-09-07 10:54:00+00:00,22.0,10.52,17.0,11.73,12.25,47.59359,-54.27349
2022-09-07 11:04:00+00:00,21.0,8.73,19.0,10.79,12.25,47.59359,-54.27349
2022-09-07 11:14:00+00:00,18.0,8.62,16.0,10.02,12.89,47.59359,-54.27349
2022-09-07 11:24:00+00:00,20.0,8.17,17.0,9.34,12.89,47.59359,-54.27349
2022-09-07 11:34:00+00:00,20.0,8.93,18.0,10.06,12.89,47.59359,-54.27349
2022-09-07 11:44:00+00:00,25.0,8.97,24.0,10.03,12.89,47.59359,-54.27349
2022-09-07 11:54:00+00:00,18.0,8.66,18.0,10.57,12.89,47.59359,-54.27349
2022-09-07 12:04:00+00:00,32.0,8.97,41.0,10.11,12.89,47.59359,-54.27349
2022-09-07 12:14:01+00:00,37.0,9.49,43.0,12.2,13.6,47.59359,-54.27349
2022-09-07 12:24:01+00:00,21.0,8.76,22.0,10.11,13.6,47.59359,-54.27349
2022-09-07 12:34:01+00:00,27.0,7.87,29.0,8.88,13.6,47.59359,-54.27349
2022-09-07 12:44:01+00:00,24.0,8.5,28.0,10.13,13.6,47.59359,-54.27349
2022-09-07 12:54:01+00:00,16.0,7.83,19.0,9.25,13.6,47.59359,-54.27349
2022-09-07 13:04:01+00:00,20.0,7.95,13.0,10.0,13.6,47.59359,-54.27349
2022-09-07 13:14:00+00:00,25.0,8.03,26.0,9.81,13.53,47.59359,-54.27349
2022-09-07 13:24:00+00:00,26.0,7.28,30.0,9.39,13.53,47.59359,-54.27349
2022-09-07 13:34:00+00:00,22.0,7.72,29.0,8.5,13.53,47.59359,-54.27349
2022-09-07 13:44:00+00:00,24.0,7.02,25.0,7.99,13.53,47.59359,-54.27349
2022-09-07 13:54:00+00:00,26.0,6.7,21.0,8.08,13.53,47.59359,-54.27349
2022-09-07 14:04:00+00:00,23.0,7.67,19.0,8.79,13.53,47.59359,-54.27349
2022-09-07 14:14:00+00:00,33.0,7.56,32.0,8.41,13.68,47.59359,-54.27349
2022-09-07 14:24:00+00:00,31.0,6.17,19.0,7.6,13.68,47.59359,-54.27349
2022-09-07 14:34:00+00:00,18.0,7.68,18.0,9.12,13.68,47.59359,-54.27349
2022-09-07 14:44:00+00:00,28.0,8.05,25.0,8.97,13.68,47.59359,-54.27349
2022-09-07 14:54:00+00:00,19.0,8.12,39.0,10.1,13.68,47.59359,-54.27349
2022-09-07 15:04:00+00:00,17.0,7.87,22.0,9.03,13.68,47.59359,-54.27349
2022-09-07 15:14:00+00:00,20.0,8.74,19.0,10.49,13.76,47.59359,-54.27349
2022-09-07 15:24:00+00:00,36.0,7.8,37.0,9.0,13.76,47.59359,-54.27349
2022-09-07 15:34:00+00:00,22.0,6.43,28.0,7.96,13.76,47.59359,-54.27349
2022-09-07 15:44:00+00:00,24.0,7.05,32.0,9.12,13.76,47.59359,-54.27349
2022-09-07 15:54:00+00:00,13.0,6.84,15.0,8.77,13.76,47.59359,-54.27349
2022-09-07 16:04:00+00:00,19.0,6.25,21.0,7.61,13.76,47.59359,-54.27349
2022-09-07 16:14:00+00:00,30.0,8.58,29.0,10.02,13.76,47.59359,-54.27349
2022-09-07 16:24:00+00:00,16.0,6.63,15.0,7.79,13.76,47.59359,-54.27349
2022-09-07 16:34:00+00:00,29.0,9.17,36.0,10.41,13.76,47.59359,-54.27349
2022-09-07 16:44:00+00:00,21.0,6.51,17.0,7.34,13.76,47.59359,-54.27349
2022-09-07 16:54:00+00:00,34.0,7.07,33.0,8.17,13.76,47.59359,-54.27349
2022-09-07 17:04:00+00:00,35.0,7.09,38.0,8.96,13.76,47.59359,-54.27349
2022-09-07 17:14:00+00:00,39.0,6.16,38.0,7.25,13.84,47.59359,-54.27349
2022-09-07 17:24:00+00:00,30.0,6.99,33.0,8.18,13.84,47.59359,-54.27349
2022-09-07 17:34:00+00:00,32.0,8.53,37.0,9.44,13.84,47.59359,-54.27349
2022-09-07 17:44:00+00:00,40.0,6.47,44.0,7.73,13.84,47.59359,-54.27349
2022-09-07 17:54:00+00:00,34.0,6.45,30.0,7.33,13.84,47.59359,-54.27349
2022-09-07 18:04:00+00:00,41.0,7.66,45.0,9.61,13.84,47.59359,-54.27349
2022-09-07 18:14:00+00:00,52.0,6.92,46.0,8.23,13.68,47.59359,-54.27349
2022-09-07 18:24:00+00:00,52.0,7.51,49.0,8.57,13.68,47.59359,-54.27349
2022-09-07 18:34:00+00:00,38.0,7.13,38.0,8.0,13.68,47.59359,-54.27349
2022-09-07 18:44:00+00:00,38.0,4.99,46.0,6.55,13.68,47.59359,-54.27349
2022-09-07 18:54:00+00:00,47.0,5.48,50.0,6.45,13.68,47.59359,-54.27349
2022-09-07 19:04:00+00:00,45.0,6.43,44.0,7.53,13.68,47.59359,-54.27349
2022-09-07 19:14:00+00:00,46.0,5.17,47.0,6.3,13.68,47.59359,-54.27349
2022-09-07 19:24:00+00:00,56.0,4.78,60.0,5.45,13.68,47.59359,-54.27349
2022-09-07 19:34:00+00:00,37.0,6.99,45.0,8.24,13.68,47.59359,-54.27349
2022-09-07 19:44:00+00:00,28.0,7.97,32.0,9.52,13.68,47.59359,-54.27349
2022-09-07 19:54:00+00:00,30.0,7.26,37.0,8.28,13.68,47.59359,-54.27349
2022-09-07 20:04:00+00:00,34.0,7.58,39.0,8.39,13.68,47.59359,-54.27349
2022-09-07 20:14:00+00:00,26.0,8.46,33.0,11.37,13.76,47.59359,-54.27349
2022-09-07 20:24:00+00:00,31.0,7.52,37.0,8.2,13.76,47.59359,-54.27349
2022-09-07 20:34:00+00:00,11.0,7.26,17.0,9.66,13.76,47.59359,-54.27349
2022-09-07 20:44:00+00:00,41.0,9.23,44.0,10.86,13.76,47.59359,-54.27349
2022-09-07 20:54:00+00:00,14.0,7.51,13.0,8.42,13.76,47.59359,-54.27349
2022-09-07 21:04:00+00:00,18.0,8.03,20.0,8.96,13.76,47.59359,-54.27349
2022-09-07 21:14:00+00:00,29.0,7.45,22.0,8.2,13.29,47.59359,-54.27349
2022-09-07 21:24:00+00:00,38.0,8.28,37.0,9.84,13.29,47.59359,-54.27349
2022-09-07 21:34:00+00:00,38.0,8.94,41.0,9.79,13.29,47.59359,-54.27349
2022-09-07 21:44:00+00:00,26.0,7.57,23.0,8.78,13.29,47.59359,-54.27349
2022-09-07 21:54:00+00:00,27.0,8.95,37.0,11.0,13.29,47.59359,-54.27349
2022-09-07 22:04:00+00:00,27.0,9.1,36.0,10.58,13.29,47.59359,-54.27349
2022-09-07 22:14:00+00:00,29.0,9.9,35.0,11.44,12.81,47.59359,-54.27349
2022-09-07 22:24:00+00:00,34.0,10.46,41.0,12.31,12.81,47.59359,-54.27349
2022-09-07 22:34:00+00:00,30.0,9.78,40.0,12.18,12.81,47.59359,-54.27349
2022-09-07 22:44:00+00:00,16.0,9.8,17.0,11.13,12.81,47.59359,-54.27349
2022-09-07 22:54:00+00:00,22.0,7.98,23.0,9.06,12.81,47.59359,-54.27349
2022-09-07 23:04:00+00:00,23.0,8.59,26.0,9.67,12.81,47.59359,-54.27349
2022-09-07 23:14:00+00:00,16.0,9.82,14.0,10.93,12.41,47.59359,-54.27349
2022-09-07 23:24:00+00:00,10.0,7.91,11.0,9.27,12.41,47.59359,-54.27349
2022-09-07 23:34:00+00:00,21.0,8.4,35.0,10.46,12.41,47.59359,-54.27349
2022-09-07 23:44:00+00:00,12.0,7.67,12.0,8.74,12.41,47.59359,-54.27349
2022-09-07 23:54:00+00:00,10.0,6.92,18.0,8.17,12.41,47.59359,-54.27349
